"Sample Date","Sample Time","Sample Value","Units","Flow Rate","Sample Interval","Number Channels","Micron Size 0","Counts/Channel 0","Micron Size 1","Counts/Channel 1","Micron Size 2","Counts/Channel 2","Micron Size 3","Counts/Channel 3","Micron Size 4","Counts/Channel 4","Micron Size 5","Counts/Channel 5","Micron Size 6","Counts/Channel 6","Micron Size 7","Counts/Channel 7","Micron Size 8","Counts/Channel 8","Micron Size 9","Counts/Channel 9","Micron Size 10","Counts/Channel 10","Micron Size 11","Counts/Channel 11","Micron Size 12","Counts/Channel 12","Micron Size 13","Counts/Channel 13","Micron Size 14","Counts/Channel 14","Micron Size 15","Counts/Channel 15","Micron Size 16","Counts/Channel 16","Micron Size 17","Counts/Channel 17","Micron Size 18","Counts/Channel 18","Micron Size 19","Counts/Channel 19","Micron Size 20","Counts/Channel 20","Micron Size 21","Counts/Channel 21","Micron Size 22","Counts/Channel 22","Micron Size 23","Counts/Channel 23","Micron Size 24","Counts/Channel 24","Micron Size 25","Counts/Channel 25","Micron Size 26","Counts/Channel 26","Micron Size 27","Counts/Channel 27","Micron Size 28","Counts/Channel 28","Micron Size 29","Counts/Channel 29","Micron Size 30","Counts/Channel 30","Micron Size 31","Counts/Channel 31"
"04/07/08","11:00:04",12838.000,"cc",28244.732,6.00,6,0.100,6139.000,0.200,2165.000,0.300,1677.000,0.500,2034.000,1.000,823.000,5.000,0
"04/07/08","11:00:10",13530.000,"cc",28361.582,6.00,6,0.100,6488.000,0.200,2288.000,0.300,1825.000,0.500,2139.000,1.000,790.000,5.000,0
"04/07/08","11:00:16",13289.000,"cc",28379.316,6.00,6,0.100,6281.000,0.200,2266.000,0.300,1854.000,0.500,2034.000,1.000,854.000,5.000,0
"04/07/08","11:00:22",12352.000,"cc",28279.549,6.00,6,0.100,6030.000,0.200,2069.000,0.300,1674.000,0.500,1853.000,1.000,726.000,5.000,0
"04/07/08","11:00:28",12954.000,"cc",28465.797,6.00,6,0.100,6210.000,0.200,2137.000,0.300,1805.000,0.500,1957.000,1.000,845.000,5.000,0
"04/07/08","11:00:34",12455.000,"cc",28170.639,6.00,6,0.100,6009.000,0.200,2051.000,0.300,1770.000,0.500,1882.000,1.000,743.000,5.000,0
"04/07/08","11:00:40",12417.000,"cc",28339.766,6.00,6,0.100,5975.000,0.200,2044.000,0.300,1724.000,0.500,1905.000,1.000,769.000,5.000,0
"04/07/08","11:00:46",12209.000,"cc",28272.057,6.00,6,0.100,5857.000,0.200,2061.000,0.300,1681.000,0.500,1879.000,1.000,731.000,5.000,0
"04/07/08","11:00:52",12654.000,"cc",28276.371,6.00,6,0.100,6052.000,0.200,2079.000,0.300,1737.000,0.500,1961.000,1.000,825.000,5.000,0
"04/07/08","11:00:58",12476.000,"cc",28378.463,6.00,6,0.100,6087.000,0.200,2044.000,0.300,1691.000,0.500,1914.000,1.000,740.000,5.000,0
"04/07/08","11:01:04",12497.000,"cc",28409.176,6.00,6,0.100,5992.000,0.200,2126.000,0.300,1722.000,0.500,1906.000,1.000,751.000,5.000,0
"04/07/08","11:01:10",12365.000,"cc",28261.227,6.00,6,0.100,6083.000,0.200,2044.000,0.300,1648.000,0.500,1843.000,1.000,747.000,5.000,0
"04/07/08","11:01:16",12616.000,"cc",28450.797,6.00,6,0.100,5971.000,0.200,2137.000,0.300,1791.000,0.500,1942.000,1.000,775.000,5.000,0
"04/07/08","11:01:22",13479.000,"cc",28238.789,6.00,6,0.100,6464.000,0.200,2302.000,0.300,1836.000,0.500,1999.000,1.000,878.000,5.000,0
"04/07/08","11:01:28",13587.000,"cc",28405.775,6.00,6,0.100,6456.000,0.200,2352.000,0.300,1844.000,0.500,2077.000,1.000,858.000,5.000,0
"04/07/08","11:01:34",12243.000,"cc",28187.865,6.00,6,0.100,5878.000,0.200,2008.000,0.300,1710.000,0.500,1939.000,1.000,708.000,5.000,0
"04/07/08","11:01:40",13089.000,"cc",28328.148,6.00,6,0.100,6210.000,0.200,2203.000,0.300,1784.000,0.500,2040.000,1.000,852.000,5.000,0
"04/07/08","11:01:46",13204.000,"cc",28175.713,6.00,6,0.100,6267.000,0.200,2244.000,0.300,1826.000,0.500,2039.000,1.000,828.000,5.000,0
"04/07/08","11:01:52",13029.000,"cc",28322.787,6.00,6,0.100,6182.000,0.200,2217.000,0.300,1740.000,0.500,2096.000,1.000,793.000,5.000,1.000
"04/07/08","11:01:58",12657.000,"cc",28377.582,6.00,6,0.100,6013.000,0.200,2116.000,0.300,1712.000,0.500,1987.000,1.000,829.000,5.000,0
"04/07/08","11:02:04",13156.000,"cc",28319.715,6.00,6,0.100,6261.000,0.200,2192.000,0.300,1756.000,0.500,2082.000,1.000,865.000,5.000,0
"04/07/08","11:02:10",12234.000,"cc",28326.512,6.00,6,0.100,5883.000,0.200,1978.000,0.300,1596.000,0.500,1943.000,1.000,834.000,5.000,0
"04/07/08","11:02:16",12858.000,"cc",28299.795,6.00,6,0.100,6090.000,0.200,2133.000,0.300,1798.000,0.500,1981.000,1.000,856.000,5.000,0
"04/07/08","11:02:22",12864.000,"cc",28368.090,6.00,6,0.100,6101.000,0.200,2138.000,0.300,1739.000,0.500,2045.000,1.000,841.000,5.000,0
"04/07/08","11:02:28",13021.000,"cc",28310.424,6.00,6,0.100,6097.000,0.200,2102.000,0.300,1859.000,0.500,2101.000,1.000,862.000,5.000,0
"04/07/08","11:02:34",13817.000,"cc",28228.816,6.00,6,0.100,6488.000,0.200,2276.000,0.300,1883.000,0.500,2229.000,1.000,941.000,5.000,0
"04/07/08","11:02:40",13355.000,"cc",28312.447,6.00,6,0.100,6262.000,0.200,2187.000,0.300,1904.000,0.500,2094.000,1.000,908.000,5.000,0
"04/07/08","11:02:46",13214.000,"cc",28296.441,6.00,6,0.100,6406.000,0.200,2169.000,0.300,1827.000,0.500,1973.000,1.000,839.000,5.000,0
"04/07/08","11:02:52",13089.000,"cc",28244.732,6.00,6,0.100,6228.000,0.200,2179.000,0.300,1782.000,0.500,2034.000,1.000,866.000,5.000,0
"04/07/08","11:02:58",12987.000,"cc",28374.461,6.00,6,0.100,6144.000,0.200,2176.000,0.300,1789.000,0.500,2035.000,1.000,843.000,5.000,0
"04/07/08","11:03:04",13408.000,"cc",28362.113,6.00,6,0.100,6448.000,0.200,2187.000,0.300,1915.000,0.500,1996.000,1.000,862.000,5.000,0
"04/07/08","11:03:10",12776.000,"cc",28363.744,6.00,6,0.100,6178.000,0.200,2073.000,0.300,1748.000,0.500,1911.000,1.000,866.000,5.000,0
"04/07/08","11:03:16",12438.000,"cc",28326.715,6.00,6,0.100,5923.000,0.200,2083.000,0.300,1747.000,0.500,1919.000,1.000,766.000,5.000,0
"04/07/08","11:03:22",12790.000,"cc",28273.428,6.00,6,0.100,6056.000,0.200,2140.000,0.300,1738.000,0.500,2015.000,1.000,841.000,5.000,0
"04/07/08","11:03:28",14030.000,"cc",28240.131,6.00,6,0.100,6599.000,0.200,2344.000,0.300,1935.000,0.500,2240.000,1.000,912.000,5.000,0
"04/07/08","11:03:34",13642.000,"cc",28428.795,6.00,6,0.100,6321.000,0.200,2312.000,0.300,1881.000,0.500,2221.000,1.000,907.000,5.000,0
"04/07/08","11:03:40",12742.000,"cc",28249.643,6.00,6,0.100,6085.000,0.200,2168.000,0.300,1729.000,0.500,1936.000,1.000,824.000,5.000,0
"04/07/08","11:03:46",12779.000,"cc",28346.979,6.00,6,0.100,5963.000,0.200,2188.000,0.300,1774.000,0.500,2042.000,1.000,812.000,5.000,0
"04/07/08","11:03:52",12734.000,"cc",28336.627,6.00,6,0.100,5964.000,0.200,2242.000,0.300,1798.000,0.500,1924.000,1.000,806.000,5.000,0
"04/07/08","11:03:58",12798.000,"cc",28289.285,6.00,6,0.100,6222.000,0.200,2012.000,0.300,1744.000,0.500,2016.000,1.000,804.000,5.000,0
"04/07/08","11:04:04",12442.000,"cc",28287.986,6.00,6,0.100,5867.000,0.200,2075.000,0.300,1785.000,0.500,1953.000,1.000,762.000,5.000,0
"04/07/08","11:04:10",12819.000,"cc",28332.217,6.00,6,0.100,6130.000,0.200,2203.000,0.300,1728.000,0.500,2024.000,1.000,734.000,5.000,0
"04/07/08","11:04:16",13067.000,"cc",28243.565,6.00,6,0.100,6308.000,0.200,2111.000,0.300,1799.000,0.500,2003.000,1.000,846.000,5.000,0
"04/07/08","11:04:22",12020.000,"cc",28390.791,6.00,6,0.100,5868.000,0.200,1935.000,0.300,1626.000,0.500,1856.000,1.000,735.000,5.000,0
"04/07/08","11:04:28",11856.000,"cc",28487.908,6.00,6,0.100,5759.000,0.200,1934.000,0.300,1568.000,0.500,1880.000,1.000,715.000,5.000,0
"04/07/08","11:04:34",12586.000,"cc",28240.688,6.00,6,0.100,6023.000,0.200,2075.000,0.300,1764.000,0.500,1958.000,1.000,766.000,5.000,0
"04/07/08","11:04:40",13154.000,"cc",28170.639,6.00,6,0.100,6190.000,0.200,2232.000,0.300,1906.000,0.500,2035.000,1.000,791.000,5.000,0
"04/07/08","11:04:46",13224.000,"cc",28316.129,6.00,6,0.100,6339.000,0.200,2215.000,0.300,1766.000,0.500,2029.000,1.000,875.000,5.000,0
"04/07/08","11:04:52",12948.000,"cc",28311.635,6.00,6,0.100,6279.000,0.200,2097.000,0.300,1823.000,0.500,2009.000,1.000,740.000,5.000,0
"04/07/08","11:04:58",13471.000,"cc",28272.801,6.00,6,0.100,6415.000,0.200,2331.000,0.300,1832.000,0.500,2105.000,1.000,788.000,5.000,0
"04/07/08","11:05:04",13543.000,"cc",28445.445,6.00,6,0.100,6321.000,0.200,2241.000,0.300,1949.000,0.500,2165.000,1.000,867.000,5.000,0
"04/07/08","11:05:10",13075.000,"cc",28291.668,6.00,6,0.100,6327.000,0.200,2130.000,0.300,1834.000,0.500,1973.000,1.000,811.000,5.000,0
"04/07/08","11:05:16",12604.000,"cc",28343.287,6.00,6,0.100,5991.000,0.200,2128.000,0.300,1759.000,0.500,1951.000,1.000,775.000,5.000,0
"04/07/08","11:05:22",12900.000,"cc",28278.598,6.00,6,0.100,6156.000,0.200,2173.000,0.300,1737.000,0.500,2021.000,1.000,813.000,5.000,0
"04/07/08","11:05:28",12988.000,"cc",28272.979,6.00,6,0.100,6286.000,0.200,2131.000,0.300,1810.000,0.500,2008.000,1.000,753.000,5.000,0
"04/07/08","11:05:34",13136.000,"cc",28500.547,6.00,6,0.100,6147.000,0.200,2128.000,0.300,1856.000,0.500,2165.000,1.000,840.000,5.000,0
"04/07/08","11:05:40",12628.000,"cc",28270.846,6.00,6,0.100,6105.000,0.200,2116.000,0.300,1659.000,0.500,1968.000,1.000,780.000,5.000,0
"04/07/08","11:05:46",13364.000,"cc",28439.186,6.00,6,0.100,6360.000,0.200,2190.000,0.300,1831.000,0.500,2097.000,1.000,886.000,5.000,0
"04/07/08","11:05:52",13315.000,"cc",28363.129,6.00,6,0.100,6324.000,0.200,2312.000,0.300,1888.000,0.500,2033.000,1.000,757.000,5.000,1.000
"04/07/08","11:05:58",13633.000,"cc",28172.002,6.00,6,0.100,6548.000,0.200,2283.000,0.300,1899.000,0.500,2075.000,1.000,828.000,5.000,0
"04/07/08","11:06:04",14949.000,"cc",28330.225,6.00,6,0.100,6860.000,0.200,2568.000,0.300,2151.000,0.500,2435.000,1.000,935.000,5.000,0
"04/07/08","11:06:10",14902.000,"cc",28397.676,6.00,6,0.100,7011.000,0.200,2635.000,0.300,2067.000,0.500,2300.000,1.000,889.000,5.000,0
"04/07/08","11:06:16",15078.000,"cc",28289.604,6.00,6,0.100,7014.000,0.200,2685.000,0.300,2165.000,0.500,2321.000,1.000,893.000,5.000,0
"04/07/08","11:06:22",16921.000,"cc",28383.461,6.00,6,0.100,7823.000,0.200,3062.000,0.300,2527.000,0.500,2553.000,1.000,956.000,5.000,0
"04/07/08","11:06:28",16905.000,"cc",28617.879,6.00,6,0.100,7578.000,0.200,3016.000,0.300,2512.000,0.500,2715.000,1.000,1084.000,5.000,0
"04/07/08","11:06:34",17431.000,"cc",28270.420,6.00,6,0.100,7978.000,0.200,3159.000,0.300,2502.000,0.500,2691.000,1.000,1101.000,5.000,0
"04/07/08","11:06:40",18579.000,"cc",27974.285,6.00,6,0.100,8308.000,0.200,3313.000,0.300,2758.000,0.500,2957.000,1.000,1243.000,5.000,0
"04/07/08","11:06:46",19517.000,"cc",28133.258,6.00,6,0.100,8527.000,0.200,3427.000,0.300,2933.000,0.500,3275.000,1.000,1355.000,5.000,0
"04/07/08","11:06:52",17797.000,"cc",28404.832,6.00,6,0.100,7851.000,0.200,3144.000,0.300,2658.000,0.500,2968.000,1.000,1176.000,5.000,0
"04/07/08","11:06:58",17564.000,"cc",28347.098,6.00,6,0.100,7876.000,0.200,3060.000,0.300,2546.000,0.500,2894.000,1.000,1188.000,5.000,0
"04/07/08","11:07:04",19921.000,"cc",28211.557,6.00,6,0.100,8519.000,0.200,3507.000,0.300,3118.000,0.500,3340.000,1.000,1437.000,5.000,0
"04/07/08","11:07:10",21756.000,"cc",28360.838,6.00,6,0.100,9109.000,0.200,4112.000,0.300,3314.000,0.500,3643.000,1.000,1578.000,5.000,0
"04/07/08","11:07:16",17989.000,"cc",28504.549,6.00,6,0.100,7895.000,0.200,3294.000,0.300,2714.000,0.500,2917.000,1.000,1169.000,5.000,0
"04/07/08","11:07:22",20267.000,"cc",28352.467,6.00,6,0.100,8552.000,0.200,3869.000,0.300,3123.000,0.500,3358.000,1.000,1365.000,5.000,0
"04/07/08","11:07:28",17510.000,"cc",28492.383,6.00,6,0.100,7506.000,0.200,3143.000,0.300,2598.000,0.500,2984.000,1.000,1279.000,5.000,0
"04/07/08","11:07:34",22674.000,"cc",28258.580,6.00,6,0.100,9201.000,0.200,4146.000,0.300,3532.000,0.500,3982.000,1.000,1813.000,5.000,0
"04/07/08","11:07:40",23672.000,"cc",27977.807,6.00,6,0.100,9557.000,0.200,4385.000,0.300,3688.000,0.500,4144.000,1.000,1898.000,5.000,0
"04/07/08","11:07:46",20191.000,"cc",28293.141,6.00,6,0.100,8379.000,0.200,3489.000,0.300,3067.000,0.500,3561.000,1.000,1695.000,5.000,0
"04/07/08","11:07:52",19568.000,"cc",28121.959,6.00,6,0.100,8233.000,0.200,3486.000,0.300,2943.000,0.500,3348.000,1.000,1558.000,5.000,0
"04/07/08","11:07:58",17653.000,"cc",28365.727,6.00,6,0.100,7685.000,0.200,3215.000,0.300,2584.000,0.500,2917.000,1.000,1252.000,5.000,0
"04/07/08","11:08:04",17634.000,"cc",28639.268,6.00,6,0.100,7566.000,0.200,3090.000,0.300,2720.000,0.500,2965.000,1.000,1293.000,5.000,0
"04/07/08","11:08:10",17918.000,"cc",28341.518,6.00,6,0.100,7749.000,0.200,3171.000,0.300,2595.000,0.500,2973.000,1.000,1430.000,5.000,0
"04/07/08","11:08:16",16587.000,"cc",28213.002,6.00,6,0.100,7379.000,0.200,2887.000,0.300,2454.000,0.500,2690.000,1.000,1177.000,5.000,0
"04/07/08","11:08:22",16013.000,"cc",28396.690,6.00,6,0.100,7066.000,0.200,2760.000,0.300,2481.000,0.500,2594.000,1.000,1112.000,5.000,0
"04/07/08","11:08:28",15349.000,"cc",28617.133,6.00,6,0.100,6833.000,0.200,2710.000,0.300,2262.000,0.500,2510.000,1.000,1033.000,5.000,1.000
"04/07/08","11:08:34",14606.000,"cc",28362.221,6.00,6,0.100,6553.000,0.200,2575.000,0.300,2105.000,0.500,2364.000,1.000,1009.000,5.000,0
"04/07/08","11:08:40",15545.000,"cc",28341.559,6.00,6,0.100,7026.000,0.200,2795.000,0.300,2414.000,0.500,2419.000,1.000,891.000,5.000,0
"04/07/08","11:08:46",13988.000,"cc",28523.076,6.00,6,0.100,6590.000,0.200,2458.000,0.300,2055.000,0.500,2106.000,1.000,779.000,5.000,0
"04/07/08","11:08:52",14716.000,"cc",28359.428,6.00,6,0.100,6792.000,0.200,2692.000,0.300,2142.000,0.500,2218.000,1.000,872.000,5.000,0
"04/07/08","11:08:58",14154.000,"cc",28285.445,6.00,6,0.100,6597.000,0.200,2589.000,0.300,2075.000,0.500,2075.000,1.000,818.000,5.000,0
"04/07/08","11:09:04",14926.000,"cc",28360.828,6.00,6,0.100,6828.000,0.200,2777.000,0.300,2200.000,0.500,2267.000,1.000,854.000,5.000,0
"04/07/08","11:09:10",14188.000,"cc",28114.623,6.00,6,0.100,6419.000,0.200,2525.000,0.300,2149.000,0.500,2192.000,1.000,903.000,5.000,0
"04/07/08","11:09:16",14124.000,"cc",28099.961,6.00,6,0.100,6456.000,0.200,2472.000,0.300,2054.000,0.500,2219.000,1.000,923.000,5.000,0
"04/07/08","11:09:22",13482.000,"cc",28089.438,6.00,6,0.100,6167.000,0.200,2374.000,0.300,1957.000,0.500,2127.000,1.000,857.000,5.000,0
"04/07/08","11:09:28",14036.000,"cc",28221.928,6.00,6,0.100,6366.000,0.200,2532.000,0.300,2007.000,0.500,2302.000,1.000,829.000,5.000,0
"04/07/08","11:09:34",14552.000,"cc",28645.541,6.00,6,0.100,6789.000,0.200,2518.000,0.300,2128.000,0.500,2249.000,1.000,868.000,5.000,0
"04/07/08","11:09:40",14061.000,"cc",28283.688,6.00,6,0.100,6388.000,0.200,2484.000,0.300,2099.000,0.500,2220.000,1.000,870.000,5.000,0
"04/07/08","11:09:46",13056.000,"cc",28495.926,6.00,6,0.100,6036.000,0.200,2316.000,0.300,1926.000,0.500,2019.000,1.000,759.000,5.000,0
"04/07/08","11:09:52",13006.000,"cc",28211.316,6.00,6,0.100,5931.000,0.200,2331.000,0.300,1810.000,0.500,2055.000,1.000,879.000,5.000,0
"04/07/08","11:09:58",13807.000,"cc",28393.035,6.00,6,0.100,6331.000,0.200,2388.000,0.300,2009.000,0.500,2200.000,1.000,879.000,5.000,0
"04/07/08","11:10:04",14608.000,"cc",28270.029,6.00,6,0.100,6762.000,0.200,2592.000,0.300,2062.000,0.500,2311.000,1.000,881.000,5.000,0
"04/07/08","11:10:10",14895.000,"cc",28443.838,6.00,6,0.100,6796.000,0.200,2620.000,0.300,2241.000,0.500,2321.000,1.000,917.000,5.000,0
"04/07/08","11:10:16",15100.000,"cc",27800.305,6.00,6,0.100,6823.000,0.200,2644.000,0.300,2213.000,0.500,2475.000,1.000,945.000,5.000,0
"04/07/08","11:10:22",14805.000,"cc",28240.482,6.00,6,0.100,6628.000,0.200,2538.000,0.300,2200.000,0.500,2512.000,1.000,927.000,5.000,0
"04/07/08","11:10:28",14226.000,"cc",28186.426,6.00,6,0.100,6524.000,0.200,2433.000,0.300,2024.000,0.500,2369.000,1.000,876.000,5.000,0
"04/07/08","11:10:34",12303.000,"cc",28388.350,6.00,6,0.100,5727.000,0.200,2137.000,0.300,1668.000,0.500,1971.000,1.000,800.000,5.000,0
"04/07/08","11:10:40",12814.000,"cc",28330.316,6.00,6,0.100,5913.000,0.200,2174.000,0.300,1897.000,0.500,2003.000,1.000,827.000,5.000,0
"04/07/08","11:10:46",12253.000,"cc",28146.783,6.00,6,0.100,5724.000,0.200,2077.000,0.300,1782.000,0.500,1917.000,1.000,753.000,5.000,0
"04/07/08","11:10:52",13050.000,"cc",28245.504,6.00,6,0.100,6034.000,0.200,2255.000,0.300,1846.000,0.500,2108.000,1.000,807.000,5.000,0
"04/07/08","11:10:58",13245.000,"cc",28419.461,6.00,6,0.100,6133.000,0.200,2220.000,0.300,1879.000,0.500,2149.000,1.000,864.000,5.000,0
"04/07/08","11:11:04",13120.000,"cc",28182.205,6.00,6,0.100,6028.000,0.200,2316.000,0.300,1816.000,0.500,2125.000,1.000,835.000,5.000,0
"04/07/08","11:11:10",13048.000,"cc",28404.525,6.00,6,0.100,5943.000,0.200,2277.000,0.300,1891.000,0.500,2080.000,1.000,857.000,5.000,0
"04/07/08","11:11:16",12949.000,"cc",28333.816,6.00,6,0.100,5937.000,0.200,2131.000,0.300,1903.000,0.500,2124.000,1.000,854.000,5.000,0
"04/07/08","11:11:22",12523.000,"cc",28396.971,6.00,6,0.100,5715.000,0.200,2174.000,0.300,1819.000,0.500,1995.000,1.000,820.000,5.000,0
"04/07/08","11:11:28",12899.000,"cc",28250.621,6.00,6,0.100,5920.000,0.200,2234.000,0.300,1758.000,0.500,2119.000,1.000,868.000,5.000,0
"04/07/08","11:11:34",13118.000,"cc",28314.539,6.00,6,0.100,6045.000,0.200,2277.000,0.300,1918.000,0.500,2046.000,1.000,832.000,5.000,0
"04/07/08","11:11:40",12333.000,"cc",28522.820,6.00,6,0.100,5545.000,0.200,2133.000,0.300,1873.000,0.500,2041.000,1.000,741.000,5.000,0
"04/07/08","11:11:46",12640.000,"cc",28292.803,6.00,6,0.100,5794.000,0.200,2270.000,0.300,1791.000,0.500,2004.000,1.000,781.000,5.000,0
"04/07/08","11:11:52",11777.000,"cc",27986.410,6.00,6,0.100,5439.000,0.200,2044.000,0.300,1684.000,0.500,1870.000,1.000,740.000,5.000,0
"04/07/08","11:11:58",12045.000,"cc",28371.334,6.00,6,0.100,5477.000,0.200,2045.000,0.300,1779.000,0.500,1964.000,1.000,780.000,5.000,0
"04/07/08","11:12:04",11697.000,"cc",28562.422,6.00,6,0.100,5488.000,0.200,2077.000,0.300,1679.000,0.500,1780.000,1.000,673.000,5.000,0
"04/07/08","11:12:10",11286.000,"cc",28139.604,6.00,6,0.100,5186.000,0.200,1945.000,0.300,1628.000,0.500,1776.000,1.000,751.000,5.000,0
"04/07/08","11:12:16",11321.000,"cc",28141.043,6.00,6,0.100,5184.000,0.200,1940.000,0.300,1674.000,0.500,1786.000,1.000,737.000,5.000,0
"04/07/08","11:12:22",11478.000,"cc",28516.918,6.00,6,0.100,5313.000,0.200,2011.000,0.300,1633.000,0.500,1808.000,1.000,713.000,5.000,0
"04/07/08","11:12:28",12272.000,"cc",28508.416,6.00,6,0.100,5666.000,0.200,2150.000,0.300,1784.000,0.500,1906.000,1.000,766.000,5.000,0
"04/07/08","11:12:34",11024.000,"cc",28530.498,6.00,6,0.100,5130.000,0.200,1890.000,0.300,1547.000,0.500,1744.000,1.000,713.000,5.000,0
"04/07/08","11:12:40",10496.000,"cc",28205.629,6.00,6,0.100,4968.000,0.200,1778.000,0.300,1511.000,0.500,1615.000,1.000,624.000,5.000,0
"04/07/08","11:12:46",11764.000,"cc",28539.481,6.00,6,0.100,5459.000,0.200,2219.000,0.300,1696.000,0.500,1730.000,1.000,660.000,5.000,0
"04/07/08","11:12:52",11186.000,"cc",28281.732,6.00,6,0.100,5215.000,0.200,2053.000,0.300,1631.000,0.500,1646.000,1.000,641.000,5.000,0
"04/07/08","11:12:58",11962.000,"cc",28332.553,6.00,6,0.100,5507.000,0.200,2136.000,0.300,1725.000,0.500,1853.000,1.000,741.000,5.000,0
"04/07/08","11:13:04",12604.000,"cc",28054.578,6.00,6,0.100,5728.000,0.200,2217.000,0.300,1892.000,0.500,1915.000,1.000,852.000,5.000,0
"04/07/08","11:13:10",13242.000,"cc",28177.117,6.00,6,0.100,5881.000,0.200,2423.000,0.300,1872.000,0.500,2125.000,1.000,941.000,5.000,0
"04/07/08","11:13:16",12295.000,"cc",28476.541,6.00,6,0.100,5786.000,0.200,2284.000,0.300,1786.000,0.500,1766.000,1.000,673.000,5.000,0
"04/07/08","11:13:22",12489.000,"cc",28424.811,6.00,6,0.100,5842.000,0.200,2254.000,0.300,1793.000,0.500,1851.000,1.000,749.000,5.000,0
"04/07/08","11:13:28",12128.000,"cc",28295.922,6.00,6,0.100,5564.000,0.200,2143.000,0.300,1743.000,0.500,1871.000,1.000,807.000,5.000,0
"04/07/08","11:13:34",12603.000,"cc",28332.783,6.00,6,0.100,5771.000,0.200,2184.000,0.300,1965.000,0.500,1876.000,1.000,807.000,5.000,0
"04/07/08","11:13:40",13294.000,"cc",28192.887,6.00,6,0.100,6038.000,0.200,2449.000,0.300,1946.000,0.500,1971.000,1.000,890.000,5.000,0
"04/07/08","11:13:46",12416.000,"cc",28268.373,6.00,6,0.100,5644.000,0.200,2103.000,0.300,1893.000,0.500,1953.000,1.000,823.000,5.000,0
"04/07/08","11:13:52",12357.000,"cc",28394.998,6.00,6,0.100,5623.000,0.200,2213.000,0.300,1777.000,0.500,1931.000,1.000,813.000,5.000,0
"04/07/08","11:13:58",12717.000,"cc",28121.334,6.00,6,0.100,5635.000,0.200,2191.000,0.300,1859.000,0.500,2060.000,1.000,972.000,5.000,0
"04/07/08","11:14:04",13067.000,"cc",28181.422,6.00,6,0.100,5674.000,0.200,2219.000,0.300,1917.000,0.500,2222.000,1.000,1035.000,5.000,0
"04/07/08","11:14:10",13339.000,"cc",28146.738,6.00,6,0.100,5729.000,0.200,2226.000,0.300,1995.000,0.500,2280.000,1.000,1109.000,5.000,0
"04/07/08","11:14:16",12694.000,"cc",28310.262,6.00,6,0.100,5533.000,0.200,2201.000,0.300,1930.000,0.500,2044.000,1.000,986.000,5.000,0
"04/07/08","11:14:22",10424.000,"cc",28316.522,6.00,6,0.100,4931.000,0.200,1747.000,0.300,1476.000,0.500,1608.000,1.000,662.000,5.000,0
"04/07/08","11:14:28",10586.000,"cc",28256.826,6.00,6,0.100,5064.000,0.200,1773.000,0.300,1468.000,0.500,1586.000,1.000,695.000,5.000,0
"04/07/08","11:14:34",11095.000,"cc",28398.525,6.00,6,0.100,5080.000,0.200,1939.000,0.300,1542.000,0.500,1762.000,1.000,772.000,5.000,0
"04/07/08","11:14:40",11073.000,"cc",28444.609,6.00,6,0.100,5139.000,0.200,1793.000,0.300,1582.000,0.500,1868.000,1.000,691.000,5.000,0
"04/07/08","11:14:46",11106.000,"cc",28243.309,6.00,6,0.100,5262.000,0.200,2024.000,0.300,1569.000,0.500,1646.000,1.000,605.000,5.000,0
"04/07/08","11:14:52",11153.000,"cc",28406.863,6.00,6,0.100,5154.000,0.200,1937.000,0.300,1566.000,0.500,1731.000,1.000,765.000,5.000,0
"04/07/08","11:14:58",11175.000,"cc",28287.820,6.00,6,0.100,5168.000,0.200,1817.000,0.300,1591.000,0.500,1772.000,1.000,827.000,5.000,0
"04/07/08","11:15:04",11249.000,"cc",28178.652,6.00,6,0.100,5176.000,0.200,1890.000,0.300,1667.000,0.500,1821.000,1.000,695.000,5.000,0
"04/07/08","11:15:10",10864.000,"cc",28332.732,6.00,6,0.100,5131.000,0.200,1852.000,0.300,1499.000,0.500,1717.000,1.000,665.000,5.000,0
"04/07/08","11:15:16",11029.000,"cc",28294.617,6.00,6,0.100,5242.000,0.200,1908.000,0.300,1558.000,0.500,1661.000,1.000,660.000,5.000,0
"04/07/08","11:15:22",11863.000,"cc",28143.197,6.00,6,0.100,5563.000,0.200,2056.000,0.300,1686.000,0.500,1792.000,1.000,766.000,5.000,0
"04/07/08","11:15:28",11649.000,"cc",28287.250,6.00,6,0.100,5415.000,0.200,2008.000,0.300,1605.000,0.500,1855.000,1.000,766.000,5.000,0
"04/07/08","11:15:34",11974.000,"cc",28302.500,6.00,6,0.100,5811.000,0.200,2102.000,0.300,1652.000,0.500,1726.000,1.000,683.000,5.000,0
"04/07/08","11:15:40",10597.000,"cc",28429.330,6.00,6,0.100,5206.000,0.200,1928.000,0.300,1436.000,0.500,1450.000,1.000,577.000,5.000,0
"04/07/08","11:15:46",11343.000,"cc",28411.588,6.00,6,0.100,5312.000,0.200,1981.000,0.300,1559.000,0.500,1736.000,1.000,755.000,5.000,0
"04/07/08","11:15:52",12077.000,"cc",28350.893,6.00,6,0.100,5582.000,0.200,2021.000,0.300,1689.000,0.500,1950.000,1.000,835.000,5.000,0
"04/07/08","11:15:58",11782.000,"cc",28329.541,6.00,6,0.100,5310.000,0.200,2016.000,0.300,1692.000,0.500,1910.000,1.000,854.000,5.000,0
"04/07/08","11:16:04",11047.000,"cc",28410.936,6.00,6,0.100,5119.000,0.200,1930.000,0.300,1498.000,0.500,1771.000,1.000,729.000,5.000,0
"04/07/08","11:16:10",11783.000,"cc",28401.404,6.00,6,0.100,5452.000,0.200,1930.000,0.300,1671.000,0.500,1881.000,1.000,849.000,5.000,0
"04/07/08","11:16:16",11291.000,"cc",28318.299,6.00,6,0.100,5206.000,0.200,1992.000,0.300,1590.000,0.500,1780.000,1.000,723.000,5.000,0
"04/07/08","11:16:22",11799.000,"cc",28212.525,6.00,6,0.100,5291.000,0.200,1945.000,0.300,1683.000,0.500,2006.000,1.000,874.000,5.000,0
"04/07/08","11:16:28",12541.000,"cc",28240.791,6.00,6,0.100,5633.000,0.200,2147.000,0.300,1810.000,0.500,2028.000,1.000,923.000,5.000,0